,,Stat5,,Stat1,,Stat2,,Stat3,,Stat4,,Wind1,,Wind1,
time,status,PA1M_AVG,status,PR1M_SUM,status,RH1M_AVG,status,SR1M_AVG,status,TA1M_AVG,status,W1dAve1m,status,W1sAve1m,
2002-06-09, 00:00:00,VALID,916.224,VALID,0,VALID,99.5641,VALID,0,VALID,20.0307,VALID,49,VALID,0.520312,
2002-06-09, 00:01:00,VALID,916.222,VALID,0,VALID,99.5641,VALID,0.0169808,VALID,20.0247,VALID,68,VALID,0.414714,
2002-06-09, 00:02:00,VALID,916.24,VALID,0,VALID,99.5781,VALID,0.0169808,VALID,20.0178,VALID,126,VALID,0.605469,
2002-06-09, 00:03:00,VALID,916.261,VALID,0,VALID,99.5679,VALID,0,VALID,20.0019,VALID,141,VALID,0.833008,
2002-06-09, 00:04:00,VALID,916.248,VALID,0,VALID,99.5768,VALID,0.0509425,VALID,20.0081,VALID,121,VALID,0.527936,
2002-06-09, 00:05:00,VALID,916.251,VALID,0,VALID,99.573,VALID,-0.0169808,VALID,20.0148,VALID,113,VALID,0.434152,
2002-06-09, 00:06:00,VALID,916.249,VALID,0,VALID,99.5794,VALID,0,VALID,20.028,VALID,139,VALID,0.367773,
2002-06-09, 00:07:00,VALID,916.24,VALID,0,VALID,99.5755,VALID,-0.0169808,VALID,20.0411,VALID,143,VALID,0.522768,
2002-06-09, 00:08:00,VALID,916.223,VALID,0,VALID,99.5755,VALID,0,VALID,20.0312,VALID,144,VALID,0.75023,
2002-06-09, 00:09:00,VALID,916.222,VALID,0,VALID,99.5743,VALID,-0.0169808,VALID,20.0148,VALID,146,VALID,0.613086,
2002-06-09, 00:10:00,VALID,916.204,VALID,0,VALID,99.5768,VALID,0.0339617,VALID,20.0151,VALID,121,VALID,0.6759,
2002-06-09, 00:11:00,VALID,916.205,VALID,0,VALID,99.5806,VALID,0,VALID,20.0088,VALID,146,VALID,0.644196,
2002-06-09, 00:12:00,VALID,916.205,VALID,0,VALID,99.5743,VALID,0.0339617,VALID,20.0019,VALID,118,VALID,0.412109,
2002-06-09, 00:13:00,VALID,916.2,VALID,0,VALID,99.573,VALID,0,VALID,19.989,VALID,108,VALID,0.729464,
2002-06-09, 00:14:00,VALID,916.166,VALID,0,VALID,99.5781,VALID,0.0169808,VALID,19.9825,VALID,99,VALID,0.747243,
2002-06-09, 00:15:00,VALID,916.144,VALID,0,VALID,99.5883,VALID,0.0339617,VALID,19.9731,VALID,88,VALID,0.431836,
2002-06-09, 00:16:00,VALID,916.12,VALID,0,VALID,99.587,VALID,0.0339617,VALID,19.9532,VALID,100,VALID,0.618845,
2002-06-09, 00:17:00,VALID,916.105,VALID,0,VALID,99.5883,VALID,0,VALID,19.9504,VALID,99,VALID,0.761607,
2002-06-09, 00:18:00,VALID,916.104,VALID,0,VALID,99.5857,VALID,0.0339617,VALID,19.9504,VALID,109,VALID,1.11465,
2002-06-09, 00:19:00,VALID,916.095,VALID,0,VALID,99.587,VALID,0,VALID,19.9442,VALID,120,VALID,0.888393,
2002-06-09, 00:20:00,VALID,916.098,VALID,0,VALID,99.5794,VALID,0.0169808,VALID,19.9408,VALID,115,VALID,0.500689,
2002-06-09, 00:21:00,VALID,916.1,VALID,0,VALID,99.5921,VALID,0,VALID,19.9343,VALID,124,VALID,0.660742,
2002-06-09, 00:22:00,VALID,916.075,VALID,0,VALID,99.5908,VALID,0,VALID,19.9313,VALID,141,VALID,1.16264,
2002-06-09, 00:23:00,VALID,916.067,VALID,0,VALID,99.587,VALID,0.0509425,VALID,19.9181,VALID,147,VALID,1.38504,
2002-06-09, 00:24:00,VALID,916.05,VALID,0,VALID,99.5755,VALID,0.0339617,VALID,19.9186,VALID,150,VALID,1.33574,
2002-06-09, 00:25:00,VALID,916.03,VALID,0,VALID,99.5819,VALID,-0.0509425,VALID,19.9095,VALID,136,VALID,0.948884,
2002-06-09, 00:26:00,VALID,916.018,VALID,0,VALID,99.5857,VALID,-0.0509425,VALID,19.907,VALID,132,VALID,0.511029,
2002-06-09, 00:27:00,VALID,916.028,VALID,0,VALID,99.5794,VALID,-0.101885,VALID,19.9067,VALID,109,VALID,0.424805,
2002-06-09, 00:28:00,VALID,916.024,VALID,0,VALID,99.5704,VALID,-0.0849042,VALID,19.8941,VALID,114,VALID,1.19944,
2002-06-09, 00:29:00,VALID,916.032,VALID,0,VALID,99.5743,VALID,-0.101885,VALID,19.8876,VALID,110,VALID,0.989955,
2002-06-09, 00:30:00,VALID,916.026,VALID,0,VALID,99.5857,VALID,-0.0849042,VALID,19.8809,VALID,118,VALID,1.13867,
2002-06-09, 00:31:00,VALID,916.039,VALID,0,VALID,99.5832,VALID,-0.101885,VALID,19.868,VALID,116,VALID,0.792634,
2002-06-09, 00:32:00,VALID,916.031,VALID,0,VALID,99.5857,VALID,-0.101885,VALID,19.8779,VALID,127,VALID,0.741268,
2002-06-09, 00:33:00,VALID,916.031,VALID,0,VALID,99.5883,VALID,-0.0679233,VALID,19.8776,VALID,103,VALID,0.0671875,
2002-06-09, 00:34:00,VALID,916.003,VALID,0,VALID,99.5844,VALID,-0.0849042,VALID,19.8943,VALID,70,VALID,0.00118371,
2002-06-09, 00:35:00,VALID,915.97,VALID,0,VALID,99.5806,VALID,-0.0679233,VALID,19.91,VALID,73,VALID,0.143527,
2002-06-09, 00:36:00,VALID,915.941,VALID,0,VALID,99.5806,VALID,-0.0679233,VALID,19.8941,VALID,104,VALID,0.331641,
2002-06-09, 00:37:00,VALID,915.928,VALID,0,VALID,99.5857,VALID,-0.0679233,VALID,19.898,VALID,212,VALID,0.422098,
2002-06-09, 00:38:00,VALID,915.942,VALID,0,VALID,99.5832,VALID,-0.0849042,VALID,19.8973,VALID,233,VALID,0.411765,
2002-06-09, 00:39:00,VALID,915.95,VALID,0,VALID,99.5832,VALID,-0.0679233,VALID,19.9008,VALID,225,VALID,0.575195,
2002-06-09, 00:40:00,VALID,915.95,VALID,0,VALID,99.5895,VALID,-0.0169808,VALID,19.8965,VALID,234,VALID,0.467803,
2002-06-09, 00:41:00,VALID,915.958,VALID,0,VALID,99.6035,VALID,0.0169808,VALID,19.9027,VALID,233,VALID,0.233036,
2002-06-09, 00:42:00,VALID,915.968,VALID,0,VALID,99.5908,VALID,0,VALID,19.9055,VALID,207,VALID,0.188477,
2002-06-09, 00:43:00,VALID,915.977,VALID,0,VALID,99.5946,VALID,0,VALID,19.9057,VALID,154,VALID,0.348884,
2002-06-09, 00:44:00,VALID,915.987,VALID,0,VALID,99.5895,VALID,0,VALID,19.9052,VALID,143,VALID,0.420496,
2002-06-09, 00:45:00,VALID,915.977,VALID,0,VALID,99.5959,VALID,0,VALID,19.9117,VALID,164,VALID,0.120312,
2002-06-09, 00:46:00,VALID,915.985,VALID,0,VALID,99.601,VALID,0.0339617,VALID,19.9281,VALID,163,VALID,0.245265,
2002-06-09, 00:47:00,VALID,915.972,VALID,0,VALID,99.5857,VALID,0.0509425,VALID,19.9184,VALID,162,VALID,0.35,
2002-06-09, 00:48:00,VALID,915.977,VALID,0,VALID,99.5921,VALID,0,VALID,19.9181,VALID,161,VALID,0.260156,
2002-06-09, 00:49:00,VALID,915.987,VALID,0,VALID,99.5908,VALID,0.0169808,VALID,19.9149,VALID,148,VALID,0.273438,
2002-06-09, 00:50:00,VALID,915.989,VALID,0,VALID,99.601,VALID,0.0169808,VALID,19.9184,VALID,120,VALID,0.72932,
2002-06-09, 00:51:00,VALID,915.996,VALID,0,VALID,99.5984,VALID,0,VALID,19.8955,VALID,111,VALID,0.618359,
2002-06-09, 00:52:00,VALID,916.006,VALID,0,VALID,99.6073,VALID,0.0169808,VALID,19.9022,VALID,116,VALID,0.724432,
2002-06-09, 00:53:00,VALID,916,VALID,0,VALID,99.6022,VALID,0,VALID,19.9089,VALID,126,VALID,0.759375,
2002-06-09, 00:54:00,VALID,915.997,VALID,0,VALID,99.5972,VALID,0.0169808,VALID,19.9249,VALID,125,VALID,0.412305,
2002-06-09, 00:55:00,VALID,915.986,VALID,0,VALID,99.5984,VALID,0.0339617,VALID,19.9249,VALID,120,VALID,0.560045,
2002-06-09, 00:56:00,VALID,915.974,VALID,0,VALID,99.5895,VALID,0,VALID,19.9343,VALID,137,VALID,0.597197,
2002-06-09, 00:57:00,VALID,915.94,VALID,0,VALID,99.5883,VALID,0.0679233,VALID,19.9281,VALID,138,VALID,0.208594,
2002-06-09, 00:58:00,VALID,915.915,VALID,0,VALID,99.5844,VALID,0.0339617,VALID,19.9413,VALID,123,VALID,0.656487,
2002-06-09, 00:59:00,VALID,915.89,VALID,0,VALID,99.5844,VALID,0.0169808,VALID,19.9313,VALID,123,VALID,0.625223,
2002-06-09, 01:00:00,VALID,915.849,VALID,0,VALID,99.5921,VALID,0.0169808,VALID,19.9214,VALID,118,VALID,0.477148,
2002-06-09, 01:01:00,VALID,915.843,VALID,0,VALID,99.5933,VALID,0.0169808,VALID,19.9186,VALID,110,VALID,0.354464,
2002-06-09, 01:02:00,VALID,915.841,VALID,0,VALID,99.5921,VALID,0,VALID,19.9117,VALID,113,VALID,0.523438,
2002-06-09, 01:03:00,VALID,915.827,VALID,0,VALID,99.6048,VALID,0.0509425,VALID,19.902,VALID,94,VALID,0.724023,
2002-06-09, 01:04:00,VALID,915.826,VALID,0,VALID,99.6086,VALID,0.0339617,VALID,19.899,VALID,86,VALID,0.83286,
2002-06-09, 01:05:00,VALID,915.828,VALID,0,VALID,99.6099,VALID,0.0339617,VALID,19.8791,VALID,82,VALID,0.907143,
2002-06-09, 01:06:00,VALID,915.804,VALID,0,VALID,99.6035,VALID,0.0169808,VALID,19.8891,VALID,83,VALID,0.846484,
2002-06-09, 01:07:00,VALID,915.781,VALID,0,VALID,99.6022,VALID,0,VALID,19.8826,VALID,92,VALID,0.8375,
2002-06-09, 01:08:00,VALID,915.755,VALID,0,VALID,99.6061,VALID,0.0509425,VALID,19.8796,VALID,101,VALID,0.344899,
2002-06-09, 01:09:00,VALID,915.706,VALID,0,VALID,99.5972,VALID,0.0509425,VALID,19.8729,VALID,112,VALID,0.410156,
2002-06-09, 01:10:00,VALID,915.669,VALID,0,VALID,99.6061,VALID,0.0169808,VALID,19.8829,VALID,137,VALID,0.264441,
2002-06-09, 01:11:00,VALID,915.612,VALID,0,VALID,99.6048,VALID,0.0339617,VALID,19.8925,VALID,151,VALID,0.586161,
2002-06-09, 01:12:00,VALID,915.564,VALID,0,VALID,99.6048,VALID,0.0339617,VALID,19.8761,VALID,147,VALID,0.480273,
2002-06-09, 01:13:00,VALID,915.528,VALID,0,VALID,99.601,VALID,0.0339617,VALID,19.8796,VALID,140,VALID,0.152009,
2002-06-09, 01:14:00,VALID,915.5,VALID,0,VALID,99.5946,VALID,0.0339617,VALID,19.8697,VALID,81,VALID,0.442096,
2002-06-09, 01:15:00,VALID,915.484,VALID,0,VALID,99.5984,VALID,0,VALID,19.8702,VALID,79,VALID,0.505273,
2002-06-09, 01:16:00,VALID,915.465,VALID,0,VALID,99.6048,VALID,0.0509425,VALID,19.8508,VALID,82,VALID,0.670455,
2002-06-09, 01:17:00,VALID,915.464,VALID,0,VALID,99.6022,VALID,0,VALID,19.8217,VALID,89,VALID,0.732143,
2002-06-09, 01:18:00,VALID,915.451,VALID,0,VALID,99.6086,VALID,0,VALID,19.7922,VALID,81,VALID,0.559766,
2002-06-09, 01:19:00,VALID,915.438,VALID,0,VALID,99.6124,VALID,0.0169808,VALID,19.783,VALID,65,VALID,0.713839,
2002-06-09, 01:20:00,VALID,915.44,VALID,0,VALID,99.6137,VALID,0.0169808,VALID,19.7504,VALID,69,VALID,0.517923,
2002-06-09, 01:21:00,VALID,915.441,VALID,0,VALID,99.6124,VALID,0,VALID,19.7281,VALID,65,VALID,0.476563,
2002-06-09, 01:22:00,VALID,915.442,VALID,0,VALID,99.6061,VALID,0.0339617,VALID,19.7186,VALID,40,VALID,0.598722,
2002-06-09, 01:23:00,VALID,915.432,VALID,0,VALID,99.6213,VALID,0,VALID,19.6831,VALID,25,VALID,0.718973,
2002-06-09, 01:24:00,VALID,915.419,VALID,0,VALID,99.6289,VALID,0.0169808,VALID,19.693,VALID,18,VALID,0.712109,
2002-06-09, 01:25:00,VALID,915.393,VALID,0,VALID,99.6239,VALID,-0.0509425,VALID,19.6739,VALID,28,VALID,0.585938,
2002-06-09, 01:26:00,VALID,915.351,VALID,0,VALID,99.6188,VALID,-0.101885,VALID,19.6711,VALID,21,VALID,0.49954,
2002-06-09, 01:27:00,VALID,915.312,VALID,0,VALID,99.6226,VALID,-0.118866,VALID,19.6622,VALID,20,VALID,0.398438,
2002-06-09, 01:28:00,VALID,915.309,VALID,0,VALID,99.6175,VALID,-0.0849042,VALID,19.6555,VALID,19,VALID,0.0878314,
2002-06-09, 01:29:00,VALID,915.303,VALID,0,VALID,99.6251,VALID,-0.101885,VALID,19.652,VALID,19,VALID,0,
2002-06-09, 01:30:00,VALID,915.308,VALID,0,VALID,99.6315,VALID,-0.101885,VALID,19.655,VALID,19,VALID,0,
2002-06-09, 01:31:00,VALID,915.331,VALID,0,VALID,99.6239,VALID,-0.118866,VALID,19.6547,VALID,19,VALID,0,
2002-06-09, 01:32:00,VALID,915.34,VALID,0,VALID,99.6226,VALID,-0.0679233,VALID,19.6615,VALID,19,VALID,0,
2002-06-09, 01:33:00,VALID,915.363,VALID,0,VALID,99.6213,VALID,-0.118866,VALID,19.6687,VALID,19,VALID,0,
2002-06-09, 01:34:00,VALID,915.373,VALID,0,VALID,99.6264,VALID,-0.0849042,VALID,19.6647,VALID,19,VALID,0,
2002-06-09, 01:35:00,VALID,915.383,VALID,0,VALID,99.615,VALID,-0.101885,VALID,19.6811,VALID,19,VALID,0.0477679,
2002-06-09, 01:36:00,VALID,915.399,VALID,0,VALID,99.62,VALID,-0.101885,VALID,19.6905,VALID,19,VALID,0.000195313,
2002-06-09, 01:37:00,VALID,915.403,VALID,0,VALID,99.6162,VALID,-0.0849042,VALID,19.7169,VALID,19,VALID,0.569196,
2002-06-09, 01:38:00,VALID,915.412,VALID,0,VALID,99.6239,VALID,-0.101885,VALID,19.7126,VALID,18,VALID,0.831112,
2002-06-09, 01:39:00,VALID,915.391,VALID,0,VALID,99.6251,VALID,-0.0509425,VALID,19.7002,VALID,19,VALID,0.789258,
2002-06-09, 01:40:00,VALID,915.374,VALID,0,VALID,99.6277,VALID,-0.0169808,VALID,19.699,VALID,23,VALID,0.731297,
2002-06-09, 01:41:00,VALID,915.353,VALID,0,VALID,99.6277,VALID,0,VALID,19.6957,VALID,24,VALID,0.742411,
2002-06-09, 01:42:00,VALID,915.313,VALID,0,VALID,99.6226,VALID,0.0679233,VALID,19.6789,VALID,21,VALID,0.856445,
2002-06-09, 01:43:00,VALID,915.289,VALID,0,VALID,99.6289,VALID,0,VALID,19.6791,VALID,14,VALID,0.894196,
2002-06-09, 01:44:00,VALID,915.276,VALID,0,VALID,99.6277,VALID,0.0169808,VALID,19.6664,VALID,15,VALID,0.675551,
2002-06-09, 01:45:00,VALID,915.261,VALID,0,VALID,99.634,VALID,0,VALID,19.6602,VALID,20,VALID,0.674414,
2002-06-09, 01:46:00,VALID,915.249,VALID,0,VALID,99.6277,VALID,0,VALID,19.6669,VALID,29,VALID,0.702178,
2002-06-09, 01:47:00,VALID,915.232,VALID,0,VALID,99.6315,VALID,0,VALID,19.6697,VALID,42,VALID,0.756696,
2002-06-09, 01:48:00,VALID,915.23,VALID,0,VALID,99.6226,VALID,0,VALID,19.6796,VALID,53,VALID,0.691797,
2002-06-09, 01:49:00,VALID,915.234,VALID,0,VALID,99.6264,VALID,0,VALID,19.6925,VALID,57,VALID,0.696205,
2002-06-09, 01:50:00,VALID,915.215,VALID,0,VALID,99.6239,VALID,0,VALID,19.6764,VALID,69,VALID,0.621783,
2002-06-09, 01:51:00,VALID,915.213,VALID,0,VALID,99.6226,VALID,0,VALID,19.654,VALID,83,VALID,0.608789,
2002-06-09, 01:52:00,VALID,915.216,VALID,0,VALID,99.634,VALID,-0.0169808,VALID,19.6307,VALID,109,VALID,0.607481,
2002-06-09, 01:53:00,VALID,915.206,VALID,0,VALID,99.6378,VALID,0,VALID,19.6279,VALID,119,VALID,0.813616,
2002-06-09, 01:54:00,VALID,915.196,VALID,0,VALID,99.6429,VALID,-0.0169808,VALID,19.6346,VALID,116,VALID,1.17266,
2002-06-09, 01:55:00,VALID,915.194,VALID,0,VALID,99.6404,VALID,0,VALID,19.6448,VALID,120,VALID,1.00982,
2002-06-09, 01:56:00,VALID,915.195,VALID,0,VALID,99.6378,VALID,0,VALID,19.6639,VALID,118,VALID,1.00368,
2002-06-09, 01:57:00,VALID,915.184,VALID,0,VALID,99.6417,VALID,-0.0339617,VALID,19.6503,VALID,121,VALID,0.529492,
2002-06-09, 01:58:00,VALID,915.187,VALID,0,VALID,99.6442,VALID,0,VALID,19.6664,VALID,110,VALID,0.358428,
2002-06-09, 01:59:00,VALID,915.193,VALID,0,VALID,99.6315,VALID,0,VALID,19.6895,VALID,99,VALID,0.422768,
2002-06-09, 02:00:00,VALID,915.199,VALID,0,VALID,99.6429,VALID,0,VALID,19.6987,VALID,127,VALID,0.303906,
2002-06-09, 02:01:00,VALID,915.215,VALID,0,VALID,99.6366,VALID,0,VALID,19.7089,VALID,139,VALID,0.215402,
2002-06-09, 02:02:00,VALID,915.218,VALID,0,VALID,99.6302,VALID,0,VALID,19.7179,VALID,141,VALID,0.231388,
2002-06-09, 02:03:00,VALID,915.212,VALID,0,VALID,99.6378,VALID,0,VALID,19.738,VALID,144,VALID,0.154883,
2002-06-09, 02:04:00,VALID,915.213,VALID,0,VALID,99.6429,VALID,-0.0169808,VALID,19.7442,VALID,152,VALID,0.390862,
2002-06-09, 02:05:00,VALID,915.216,VALID,0,VALID,99.6289,VALID,0,VALID,19.7534,VALID,157,VALID,0.0256696,
2002-06-09, 02:06:00,VALID,915.232,VALID,0,VALID,99.6328,VALID,-0.0169808,VALID,19.7668,VALID,155,VALID,0.291211,
2002-06-09, 02:07:00,VALID,915.232,VALID,0,VALID,99.6328,VALID,0,VALID,19.7864,VALID,135,VALID,0.376563,
2002-06-09, 02:08:00,VALID,915.234,VALID,0,VALID,99.6366,VALID,0,VALID,19.7892,VALID,153,VALID,0.244026,
2002-06-09, 02:09:00,VALID,915.239,VALID,0,VALID,99.6429,VALID,-0.0169808,VALID,19.7892,VALID,133,VALID,0.0853516,
2002-06-09, 02:10:00,VALID,915.25,VALID,0,VALID,99.6353,VALID,-0.0679233,VALID,19.7964,VALID,132,VALID,0.00118371,
2002-06-09, 02:11:00,VALID,915.268,VALID,0,VALID,99.6378,VALID,-0.0849042,VALID,19.8036,VALID,117,VALID,0.158036,
2002-06-09, 02:12:00,VALID,915.277,VALID,0,VALID,99.634,VALID,-0.101885,VALID,19.8004,VALID,106,VALID,0.0259766,
2002-06-09, 02:13:00,VALID,915.267,VALID,0,VALID,99.6378,VALID,-0.0509425,VALID,19.7937,VALID,106,VALID,0.00513393,
2002-06-09, 02:14:00,VALID,915.257,VALID,0,VALID,99.6378,VALID,-0.101885,VALID,19.7971,VALID,106,VALID,0,
2002-06-09, 02:15:00,VALID,915.226,VALID,0,VALID,99.6442,VALID,-0.101885,VALID,19.7937,VALID,106,VALID,0,
2002-06-09, 02:16:00,VALID,915.231,VALID,0,VALID,99.6353,VALID,-0.101885,VALID,19.8138,VALID,132,VALID,0.200758,
2002-06-09, 02:17:00,VALID,915.211,VALID,0,VALID,99.6442,VALID,-0.101885,VALID,19.8071,VALID,170,VALID,0.436161,
2002-06-09, 02:18:00,VALID,915.202,VALID,0,VALID,99.6429,VALID,-0.101885,VALID,19.8038,VALID,170,VALID,0.175586,
2002-06-09, 02:19:00,VALID,915.195,VALID,0,VALID,99.6366,VALID,-0.101885,VALID,19.8168,VALID,170,VALID,0,
2002-06-09, 02:20:00,VALID,915.198,VALID,0,VALID,99.6391,VALID,-0.118866,VALID,19.8133,VALID,170,VALID,0,
2002-06-09, 02:21:00,VALID,915.199,VALID,0,VALID,99.6391,VALID,-0.101885,VALID,19.8197,VALID,170,VALID,0,
2002-06-09, 02:22:00,VALID,915.204,VALID,0,VALID,99.6391,VALID,-0.118866,VALID,19.8431,VALID,170,VALID,0,
2002-06-09, 02:23:00,VALID,915.206,VALID,0,VALID,99.6468,VALID,-0.101885,VALID,19.8424,VALID,170,VALID,0,
2002-06-09, 02:24:00,VALID,915.198,VALID,0,VALID,99.6442,VALID,-0.118866,VALID,19.865,VALID,170,VALID,0,
2002-06-09, 02:25:00,VALID,915.176,VALID,0,VALID,99.6429,VALID,-0.0509425,VALID,19.8677,VALID,170,VALID,0,
2002-06-09, 02:26:00,VALID,915.17,VALID,0,VALID,99.6353,VALID,-0.0169808,VALID,19.8704,VALID,170,VALID,0,
2002-06-09, 02:27:00,VALID,915.155,VALID,0,VALID,99.6353,VALID,-0.0509425,VALID,19.8381,VALID,158,VALID,0.274023,
2002-06-09, 02:28:00,VALID,915.146,VALID,0,VALID,99.6353,VALID,-0.0339617,VALID,19.8317,VALID,147,VALID,0.555398,
2002-06-09, 02:29:00,VALID,915.14,VALID,0,VALID,99.6404,VALID,-0.0509425,VALID,19.8319,VALID,159,VALID,0.581473,
2002-06-09, 02:30:00,VALID,915.127,VALID,0,VALID,99.6506,VALID,-0.0509425,VALID,19.8255,VALID,137,VALID,0.675977,
2002-06-09, 02:31:00,VALID,915.107,VALID,0,VALID,99.6328,VALID,-0.0169808,VALID,19.7991,VALID,136,VALID,0.328348,
2002-06-09, 02:32:00,VALID,915.114,VALID,0,VALID,99.6468,VALID,-0.0169808,VALID,19.7996,VALID,118,VALID,0.456342,
2002-06-09, 02:33:00,VALID,915.108,VALID,0,VALID,99.6506,VALID,-0.0169808,VALID,19.7897,VALID,104,VALID,0.429492,
2002-06-09, 02:34:00,VALID,915.104,VALID,0,VALID,99.648,VALID,-0.0509425,VALID,19.7795,VALID,81,VALID,0.501657,
2002-06-09, 02:35:00,VALID,915.081,VALID,0,VALID,99.6455,VALID,0,VALID,19.8155,VALID,77,VALID,0.419196,
2002-06-09, 02:36:00,VALID,915.088,VALID,0,VALID,99.6455,VALID,0,VALID,19.8187,VALID,74,VALID,0.494727,
2002-06-09, 02:37:00,VALID,915.062,VALID,0,VALID,99.6468,VALID,0,VALID,19.8453,VALID,60,VALID,0.551562,
2002-06-09, 02:38:00,VALID,915.067,VALID,0,VALID,99.6404,VALID,-0.0169808,VALID,19.8607,VALID,59,VALID,0.767004,
2002-06-09, 02:39:00,VALID,915.069,VALID,0,VALID,99.6468,VALID,0,VALID,19.8374,VALID,40,VALID,0.750586,
2002-06-09, 02:40:00,VALID,915.055,VALID,0,VALID,99.6442,VALID,-0.0339617,VALID,19.8441,VALID,33,VALID,0.771307,
2002-06-09, 02:41:00,VALID,915.049,VALID,0,VALID,99.6417,VALID,-0.0339617,VALID,19.8575,VALID,26,VALID,0.793527,
2002-06-09, 02:42:00,VALID,915.037,VALID,0,VALID,99.6429,VALID,-0.0339617,VALID,19.8511,VALID,29,VALID,0.739648,
2002-06-09, 02:43:00,VALID,915.026,VALID,0,VALID,99.6518,VALID,0,VALID,19.8411,VALID,26,VALID,0.704911,
2002-06-09, 02:44:00,VALID,915.007,VALID,0,VALID,99.6518,VALID,0,VALID,19.8279,VALID,26,VALID,0.41659,
2002-06-09, 02:45:00,VALID,915.015,VALID,0,VALID,99.6493,VALID,0,VALID,19.8317,VALID,26,VALID,0.349805,
2002-06-09, 02:46:00,VALID,914.994,VALID,0,VALID,99.648,VALID,0,VALID,19.8312,VALID,32,VALID,0.484848,
2002-06-09, 02:47:00,VALID,914.978,VALID,0,VALID,99.6518,VALID,0,VALID,19.8255,VALID,43,VALID,0.498661,
2002-06-09, 02:48:00,VALID,914.963,VALID,0,VALID,99.648,VALID,-0.0509425,VALID,19.8252,VALID,43,VALID,0.407422,
2002-06-09, 02:49:00,VALID,914.961,VALID,0,VALID,99.6455,VALID,-0.0339617,VALID,19.8347,VALID,34,VALID,0.574554,
2002-06-09, 02:50:00,VALID,914.933,VALID,0,VALID,99.6404,VALID,-0.0339617,VALID,19.8312,VALID,14,VALID,0.85432,
2002-06-09, 02:51:00,VALID,914.927,VALID,0,VALID,99.6404,VALID,0.0169808,VALID,19.8349,VALID,21,VALID,0.839453,
2002-06-09, 02:52:00,VALID,914.915,VALID,0,VALID,99.6518,VALID,0,VALID,19.8182,VALID,21,VALID,0.759233,
2002-06-09, 02:53:00,VALID,914.887,VALID,0,VALID,99.6531,VALID,0,VALID,19.8187,VALID,18,VALID,0.761384,
2002-06-09, 02:54:00,VALID,914.875,VALID,0,VALID,99.6531,VALID,0,VALID,19.8125,VALID,34,VALID,0.84043,
2002-06-09, 02:55:00,VALID,914.877,VALID,0,VALID,99.6493,VALID,0,VALID,19.7989,VALID,34,VALID,0.866964,
2002-06-09, 02:56:00,VALID,914.878,VALID,0,VALID,99.6556,VALID,0,VALID,19.8053,VALID,31,VALID,0.811351,
2002-06-09, 02:57:00,VALID,914.881,VALID,0,VALID,99.6531,VALID,0.0169808,VALID,19.8016,VALID,53,VALID,0.769727,
2002-06-09, 02:58:00,VALID,914.874,VALID,0,VALID,99.6595,VALID,0,VALID,19.7922,VALID,49,VALID,0.387311,
2002-06-09, 02:59:00,VALID,914.881,VALID,0,VALID,99.6442,VALID,0,VALID,19.8018,VALID,49,VALID,0.225893,
2002-06-09, 03:00:00,VALID,914.862,VALID,0,VALID,99.6506,VALID,0,VALID,19.8056,VALID,49,VALID,0.15,
2002-06-09, 03:01:00,VALID,914.862,VALID,0,VALID,99.6607,VALID,-0.0169808,VALID,19.7827,VALID,49,VALID,0,
2002-06-09, 03:02:00,VALID,914.847,VALID,0,VALID,99.648,VALID,0,VALID,19.7825,VALID,51,VALID,0.132123,
2002-06-09, 03:03:00,VALID,914.848,VALID,0,VALID,99.6582,VALID,-0.0339617,VALID,19.7924,VALID,120,VALID,0.508984,
2002-06-09, 03:04:00,VALID,914.836,VALID,0,VALID,99.6646,VALID,0,VALID,19.8053,VALID,149,VALID,0.68679,
2002-06-09, 03:05:00,VALID,914.829,VALID,0,VALID,99.6544,VALID,-0.0169808,VALID,19.8153,VALID,156,VALID,0.63125,
2002-06-09, 03:06:00,VALID,914.825,VALID,0,VALID,99.6518,VALID,0,VALID,19.8148,VALID,156,VALID,0.850586,
2002-06-09, 03:07:00,VALID,914.814,VALID,0,VALID,99.6493,VALID,0,VALID,19.8252,VALID,161,VALID,0.676562,
2002-06-09, 03:08:00,VALID,914.811,VALID,0,VALID,99.6493,VALID,-0.0169808,VALID,19.8319,VALID,150,VALID,0.170726,
2002-06-09, 03:09:00,VALID,914.812,VALID,0,VALID,99.6429,VALID,-0.0509425,VALID,19.825,VALID,140,VALID,0.424023,
2002-06-09, 03:10:00,VALID,914.819,VALID,0,VALID,99.648,VALID,-0.0169808,VALID,19.8245,VALID,138,VALID,0.462457,
2002-06-09, 03:11:00,VALID,914.819,VALID,0,VALID,99.6506,VALID,-0.0169808,VALID,19.8451,VALID,138,VALID,0.453571,
2002-06-09, 03:12:00,VALID,914.823,VALID,0,VALID,99.6544,VALID,-0.0169808,VALID,19.8481,VALID,132,VALID,0.682422,
2002-06-09, 03:13:00,VALID,914.837,VALID,0,VALID,99.6544,VALID,-0.0509425,VALID,19.8379,VALID,111,VALID,0.985937,
2002-06-09, 03:14:00,VALID,914.848,VALID,0,VALID,99.648,VALID,-0.0339617,VALID,19.8317,VALID,96,VALID,1.24977,
2002-06-09, 03:15:00,VALID,914.867,VALID,0,VALID,99.6442,VALID,0,VALID,19.825,VALID,90,VALID,2.15859,
2002-06-09, 03:16:00,VALID,914.875,VALID,0,VALID,99.6544,VALID,-0.0339617,VALID,19.7999,VALID,95,VALID,1.72846,
2002-06-09, 03:17:00,VALID,914.871,VALID,0,VALID,99.6506,VALID,0,VALID,19.7763,VALID,146,VALID,0.960491,
2002-06-09, 03:18:00,VALID,914.862,VALID,0,VALID,99.6607,VALID,-0.0339617,VALID,19.7899,VALID,152,VALID,0.553711,
2002-06-09, 03:19:00,VALID,914.839,VALID,0,VALID,99.6544,VALID,-0.0339617,VALID,19.7864,VALID,142,VALID,0.27433,
2002-06-09, 03:20:00,VALID,914.832,VALID,0,VALID,99.6531,VALID,-0.0169808,VALID,19.7897,VALID,110,VALID,0.400965,
2002-06-09, 03:21:00,VALID,914.843,VALID,0,VALID,99.6556,VALID,0,VALID,19.8058,VALID,117,VALID,0.476172,
2002-06-09, 03:22:00,VALID,914.843,VALID,0,VALID,99.6544,VALID,-0.0339617,VALID,19.8091,VALID,127,VALID,0.600379,
2002-06-09, 03:23:00,VALID,914.84,VALID,0,VALID,99.6556,VALID,0,VALID,19.8187,VALID,121,VALID,0.568527,
2002-06-09, 03:24:00,VALID,914.843,VALID,0,VALID,99.6582,VALID,-0.0169808,VALID,19.8287,VALID,132,VALID,0.778125,
2002-06-09, 03:25:00,VALID,914.824,VALID,0,VALID,99.6569,VALID,-0.0169808,VALID,19.8284,VALID,145,VALID,0.950893,
2002-06-09, 03:26:00,VALID,914.793,VALID,0,VALID,99.6607,VALID,-0.0169808,VALID,19.8217,VALID,151,VALID,1.01333,
2002-06-09, 03:27:00,VALID,914.788,VALID,0,VALID,99.6518,VALID,-0.0339617,VALID,19.815,VALID,148,VALID,0.714648,
2002-06-09, 03:28:00,VALID,914.772,VALID,0,VALID,99.6544,VALID,-0.0169808,VALID,19.8446,VALID,149,VALID,0.244792,
2002-06-09, 03:29:00,VALID,914.753,VALID,0,VALID,99.6607,VALID,-0.0169808,VALID,19.8376,VALID,142,VALID,0.379241,
2002-06-09, 03:30:00,VALID,914.737,VALID,0,VALID,99.6506,VALID,-0.0169808,VALID,19.8376,VALID,122,VALID,0.528906,
2002-06-09, 03:31:00,VALID,914.72,VALID,0,VALID,99.6544,VALID,-0.0169808,VALID,19.8443,VALID,117,VALID,0.493527,
2002-06-09, 03:32:00,VALID,914.695,VALID,0,VALID,99.6544,VALID,-0.0169808,VALID,19.8476,VALID,117,VALID,0.230239,
2002-06-09, 03:33:00,VALID,914.695,VALID,0,VALID,99.648,VALID,0,VALID,19.8575,VALID,117,VALID,0.172656,
2002-06-09, 03:34:00,VALID,914.671,VALID,0,VALID,99.6468,VALID,-0.0169808,VALID,19.8607,VALID,101,VALID,0.264915,